sat.trackr.live / text

‹ back to catalog

STARLINK-35993

NORAD 66607 · 2025-270V

PAYLOAD ACTIVE UNKNOWN

§ Identity

Operator
Country
US
Launch date
2025-11-22
Launch site
AFETR
Launch vehicle
Mass (kg)
RCS (m²)

Purposes: comms

External: N2YO · Heavens-Above · Gunter

§ Orbital elements

Epoch: 2026-09-20T20:41:08.726784Z

Period
94.27 min
Inclination
43.0006°
Eccentricity
0.0001167
Mean motion
15.27588349 rev/d
Perigee alt
482.2 km
Apogee alt
483.8 km
Semi-major
6,861.2 km
B*
4.1735e-4
RAAN
34.0592°
Arg perigee
271.2208°
Mean anomaly
88.8509°
Rev number
4,745

§ Raw data

STARLINK-359931 66607U 25270V   26263.86190656  .00011243  00000+0  41735-3 0  99942 66607  43.0006  34.0592 0001167 271.2208  88.8509 15.27588349 47450

JSON: /api/v1/satellites/66607 · /tle

For live sub-satellite position, see the globe view (requires WebGL).

§ Visibility from observer

Set your observer location to see the next 7 days of passes ≥ 10°. The values pass through the URL so the page stays shareable.

No JS? Fill the form by hand. The geolocation button needs JavaScript.